Preview of NWS' New Version of Forecast
This preview is not operational and should not be used for support decisions.

Regional Weather Roundup (RWR)

Issued by National Weather Service (NWS)

                            
000
ASUS43 KMKX 171220
RWRWI 

WISCONSIN REGIONAL WEATHER ROUNDUP
NATIONAL WEATHER SERVICE MILWAUKEE/SULLIVAN WI
600 AM CST SUN FEB 17 2019

NOTE: "FAIR" INDICATES FEW OR NO CLOUDS BELOW 12,000 FEET WITH NO
SIGNIFICANT WEATHER AND/OR OBSTRUCTIONS TO VISIBILITY.

WIZ001-002-006>008-014>016-023>028-171300-
NORTHWEST WISCONSIN
  
CITY           SKY/WX    TMP DP  RH WIND       PRES   REMARKS
SUPERIOR ARPT  FAIR      10   8  92 NE5       30.14R WCI   1          
6HR MIN TEMP:  10; 6HR MAX TEMP:  16;                                

ASHLAND        MOCLDY     5   2  87 NE3       30.13R                  
6HR MIN TEMP:   3; 6HR MAX TEMP:  12;                                

HAYWARD        MOCLDY     6   3  87 N6        30.05S WCI  -4          
6HR MIN TEMP:   2; 6HR MAX TEMP:  13;                                

SIREN          CLOUDY    15   9  79 NE5       30.06R WCI   7          
6HR MIN TEMP:  15; 6HR MAX TEMP:  17;                                

CUMBERLAND     CLOUDY    16   9  73 NE9       30.01S WCI   4          
RICE LAKE      CLOUDY    17  12  82 NE7       30.03S WCI   7          
6HR MIN TEMP:  10; 6HR MAX TEMP:  19;                                

CHETEK         CLOUDY    16  10  78 NE7       30.02S WCI   6          
6HR MIN TEMP:  14; 6HR MAX TEMP:  17;                                

LADYSMITH      CLOUDY    15  10  81 NE7       30.03S WCI   5          
6HR MIN TEMP:   7; 6HR MAX TEMP:  15;                                

EAU CLAIRE     CLOUDY    15   8  73 NE7       29.98F WCI   5          
6HR MIN TEMP:  11; 6HR MAX TEMP:  15;                                

MENOMONIE      CLOUDY    14   8  75 NE9       30.00S WCI   2          
6HR MIN TEMP:  10; 6HR MAX TEMP:  14;                                

NEW RICHMOND   CLOUDY    16   9  74 NE8       30.01R WCI   5          
6HR MIN TEMP:  14; 6HR MAX TEMP:  17;                                

OSCEOLA        CLOUDY    17  11  77 NE6       30.06R WCI   9          
6HR MIN TEMP:  17; 6HR MAX TEMP:  19;                                

$$
 
WIZ003>005-009-010-017-018-171300-
NORTH CENTRAL WISCONSIN
  
CITY           SKY/WX    TMP DP  RH WIND       PRES   REMARKS
MANITOWISH WTR NOT AVBL                                               
ARBOR VITAE    FAIR      11   9  89 E5        30.02F WCI   3          
6HR MIN TEMP:  11; 6HR MAX TEMP:  17;                                

WOODRUFF       FAIR      11   9  89 E5        30.02F WCI   3          
6HR MIN TEMP:  11; 6HR MAX TEMP:  17;                                

RHINELANDER    FAIR      10   4  76 NE8       30.01S WCI  -2          
6HR MIN TEMP:   6; 6HR MAX TEMP:  13;                                

EAGLE RIVER    FAIR       8   4  84 NE5       30.03S WCI  -1          
6HR MIN TEMP:   6; 6HR MAX TEMP:  13;                                

LAND O LAKES   MOCLDY     1  -3  86 NE3       30.05F                  
6HR MIN TEMP:  -4; 6HR MAX TEMP:  11;                                

PHILLIPS       FAIR       9   6  89 NE6       30.01S WCI  -1          
6HR MIN TEMP:   2; 6HR MAX TEMP:  14;                                

TOMAHAWK       MOCLDY     9   6  89 NE5       30.02S WCI   0          
6HR MIN TEMP:   1; 6HR MAX TEMP:   9;                                

MEDFORD        CLOUDY    13   9  84 E12       29.97F WCI  -1          
6HR MIN TEMP:  10; 6HR MAX TEMP:  13;                                

MERRILL        CLOUDY    12   9  85 NE5       30.01S WCI   4          
6HR MIN TEMP:   4; 6HR MAX TEMP:  12;                                

$$
 
WIZ029-030-035-036-043>047-171300-
CENTRAL WISCONSIN
  
CITY           SKY/WX    TMP DP  RH WIND       PRES   REMARKS
WAUSAU         CLOUDY    16  10  77 E7        29.99R WCI   6          
6HR MIN TEMP:  11; 6HR MAX TEMP:  16;                                

MOSINEE        CLOUDY    16  12  86 NE13      29.99F WCI   2          
MARSHFIELD     CLOUDY    16  11  80 E12       29.94F WCI   3          
6HR MIN TEMP:  14; 6HR MAX TEMP:  16;                                

STEVENS POINT  CLOUDY    15  11  84 NE12G17   29.98F WCI   1          
6HR MIN TEMP:  11; 6HR MAX TEMP:  15;                                

WAUPACA        CLOUDY    19  13  76 NE8       30.01S WCI   9          
6HR MIN TEMP:  16; 6HR MAX TEMP:  19;                                

WAUTOMA        CLOUDY    18  12  79 NE9       29.98S WCI   6          
6HR MIN TEMP:  15; 6HR MAX TEMP:  18;                                

WISC RAPIDS    CLOUDY    18  10  71 E10       29.97F WCI   6          
6HR MIN TEMP:  14; 6HR MAX TEMP:  18;                                

CAMP DOUGLAS   CLOUDY    19  16  86 E8        29.95F WCI   9          
6HR MIN TEMP:  17; 6HR MAX TEMP:  19; 6HR PCP: TRACE;                

$$
 
WIZ011>013-019>022-031-037>040-048>050-171300-
NORTHEAST WISCONSIN
  
CITY           SKY/WX    TMP DP  RH WIND       PRES   REMARKS
ANTIGO         CLOUDY    14  10  86 E10       30.00S WCI   1          
6HR MIN TEMP:   9; 6HR MAX TEMP:  14;                                

SHAWANO        CLOUDY    18  12  79 NE7       30.05S WCI   8          
6HR MIN TEMP:  11; 6HR MAX TEMP:  17;                                

OCONTO         CLOUDY    17  11  77 NE7       30.07S WCI   8          
6HR MIN TEMP:  15; 6HR MAX TEMP:  17;                                

STURGEON BAY   CLOUDY    22  17  81 E8        30.07F WCI  12          
6HR MIN TEMP:  15; 6HR MAX TEMP:  23; 6HR PCP: TRACE;                

GREEN BAY      FAIR      18  12  77 NE12      30.04S WCI   5          
6HR MIN TEMP:  16; 6HR MAX TEMP:  18;                                

MANITOWOC      CLOUDY    24  18  77 E15       30.03S WCI  11          
6HR MIN TEMP:  24; 6HR MAX TEMP:  25;                                

APPLETON       MOCLDY    18  10  73 NE8       29.99F WCI   7          
CLINTONVILLE   CLOUDY    17  10  76 NE8       30.03F WCI   6          
6HR MIN TEMP:  15; 6HR MAX TEMP:  17;                                

OSHKOSH        CLOUDY    17  13  84 NE16      29.98S WCI   2          
6HR MIN TEMP:  17; 6HR MAX TEMP:  19;                                

$$
 
WIZ032>034-041-042-053>061-171300-
SOUTHWEST WISCONSIN
  
CITY           SKY/WX    TMP DP  RH WIND       PRES   REMARKS
LA CROSSE      LGT SNOW  20  17  88 CALM      29.95F FOG              
6HR MIN TEMP:  19; 6HR MAX TEMP:  21; 6HR PCP:  0.02;                

SPARTA         LGT SNOW  19  16  88 NE7       29.95F WCI   9          
6HR MIN TEMP:  17; 6HR MAX TEMP:  19;                                

VIROQUA        CLOUDY    19  18  98 E12       29.89R WCI   6          
6HR MIN TEMP:  17; 6HR MAX TEMP:  19;                                

BOSCOBEL       LGT SNOW  21  18  88 VRB3      29.91F VSB 1            
6HR MIN TEMP:  21; 6HR MAX TEMP:  23; 6HR PCP:  0.05;                

PRAIRIE DU CHI LGT SNOW  21  17  85 E3        29.90F                  
6HR MIN TEMP:  21; 6HR MAX TEMP:  23;                                

PLATTEVILLE    CLOUDY    22  22 100 E10       29.86S WCI  11          
6HR MIN TEMP:  22; 6HR MAX TEMP:  24; 6HR PCP:  0.03;                

$$

WIZ056-057-062-063-064-067-068-171300-
SOUTH CENTRAL WISCONSIN
  
CITY           SKY/WX    TMP DP  RH WIND       PRES   REMARKS
REEDSBURG      MIX PCPN  19  16  86 NE13G18   29.92F WCI   7          
6HR MIN TEMP:  18; 6HR MAX TEMP:  19;                                

BARABOO/DELLS  LGT SNOW  19  15  86 NE10      29.92F WCI   7          
6HR MIN TEMP:  18; 6HR MAX TEMP:  19;                                

LONE ROCK      LGT SNOW  22  19  89 E13       29.92S FOG     WCI  10  
6HR MIN TEMP:  22; 6HR MAX TEMP:  23; 6HR PCP: TRACE;                

MINERAL POINT  LGT SNOW  23  23 100 E12       29.85F WCI  12          
MADISON        LGT SNOW  23  20  88 E10       29.90F FOG     WCI  12  
6HR MIN TEMP:  20; 6HR MAX TEMP:  23; 6HR PCP:  0.03;                

MIDDLETON      CLOUDY    23  22  93 NE7       29.90S WCI  15          
6HR MIN TEMP:  22; 6HR MAX TEMP:  23;                                

WATERTOWN      LGT SNOW  24  22  95 E12       29.91F WCI  12          
6HR MIN TEMP:  23; 6HR MAX TEMP:  26;                                

MONROE         LGT SNOW  23  22  94 MISG      29.85F                  
6HR MIN TEMP:  23; 6HR MAX TEMP:  24;                                

JANESVILLE     LGT SNOW  27  25  93 E12       29.90F VSB 1   WCI  16  
$$
 
WIZ051-052-058>065-066-070>072-171300-
SOUTHEAST WISCONSIN
  
CITY           SKY/WX    TMP DP  RH WIND       PRES   REMARKS
MILWAUKEE      CLOUDY    27  19  72 E15       29.94F WCI  15          
6HR MIN TEMP:  27; 6HR MAX TEMP:  28;                                

WAUKESHA       CLOUDY    23  18  80 E9        29.94F WCI  13          
MILWAUKEE/TIMM CLOUDY    27  18  69 E10G16    29.95F WCI  17          
RACINE         CLOUDY    27  20  75 E17       29.94F WCI  14          
6HR MIN TEMP:  27; 6HR MAX TEMP:  27;                                

KENOSHA        LGT SNOW  27  23  85 E14       29.91F FOG     WCI  16  
6HR MIN TEMP:  27; 6HR MAX TEMP:  28; 6HR PCP: TRACE;                

FOND DU LAC    CLOUDY    24  17  74 E13       29.96F WCI  12          
6HR MIN TEMP:  19; 6HR MAX TEMP:  24;                                

SHEBOYGAN      CLOUDY    24  16  71 E12G23    30.00S WCI  13          
6HR MIN TEMP:  24; 6HR MAX TEMP:  25;                                

WEST BEND      CLOUDY    25  19  80 E15G23    29.94F WCI  12          
JUNEAU         CLOUDY    24  18  78 E12G17    29.94S WCI  13          
6HR MIN TEMP:  20; 6HR MAX TEMP:  25;                                

$$

LSZ147-162-171300-
LAKE SUPERIOR
  
STATION/POSITION TIME  TEMP    WIND        PRES    WAVE
                       AIR SEA DIR/SP/G            HT/PER
                 (UTC) (F)     (DEG/KT/KT) (MB)    (FT/S)
DEVILS ISLAND    1200   16      90/ 13/ 15 1022.8F
SAXON HARBOR     1140   -4     200/  4/  6 1020.7R
$$
 
LMZ867-665-643>646-171300-
LAKE MICHIGAN
  
STATION/POSITION TIME  TEMP    WIND        PRES    WAVE
                       AIR SEA DIR/SP/G            HT/PER
                 (UTC) (F)     (DEG/KT/KT) (MB)    (FT/S)
NORTHPORT PIER   1205